sat.trackr.live / text

‹ back to catalog

STARLINK-11203 [DTC]

NORAD 60117 · 2024-118E

PAYLOAD ACTIVE UNKNOWN

§ Identity

Operator
Country
US
Launch date
2024-06-24
Launch site
AFWTR
Launch vehicle
Mass (kg)
RCS (m²)

Purposes: comms

External: N2YO · Heavens-Above · Gunter

§ Orbital elements

Epoch: 2026-09-21T22:16:49.147104Z

Period
91.74 min
Inclination
53.1596°
Eccentricity
0.0001011
Mean motion
15.69690145 rev/d
Perigee alt
359.1 km
Apogee alt
360.5 km
Semi-major
6,737.9 km
B*
-2.5171e-5
RAAN
333.9628°
Arg perigee
69.2839°
Mean anomaly
290.8287°
Rev number
12,881

§ Raw data

STARLINK-11203 [DTC]1 60117U 24118E   26264.92834661 -.00003634  00000+0 -25171-4 0  99972 60117  53.1596 333.9628 0001011  69.2839 290.8287 15.69690145128812

JSON: /api/v1/satellites/60117 · /tle

For live sub-satellite position, see the globe view (requires WebGL).

§ Visibility from observer

Set your observer location to see the next 7 days of passes ≥ 10°. The values pass through the URL so the page stays shareable.

No JS? Fill the form by hand. The geolocation button needs JavaScript.